This demonstration page uses our WeatherBlox Daily Observations layout. Learn more.

Left ArrowRight Arrow

34.74481, -87.66753

Hourly Observations for June 12, 2020

Temp ( °F °C ) Dew Point ( °F °C ) Humidity (%) Winds ( mph kmh ) Pressure ( in mb ) Visibility ( mi km ) Precip ( " mm )
12:53 am 00:53 Clear 70 21.1 56 13.3 61 61 NNE 5 7 30.20 1023 10 16 0.00 0.00
1:53 am 01:53 Clear 69 20.6 56 13.3 63 63 VRB 5 7 30.20 1023 10 16 0.00 0.00
2:53 am 02:53 Clear 67 19.4 57 13.9 71 71 NNE 5 7 30.20 1023 10 16 0.00 0.00
3:53 am 03:53 Clear 67 19.4 56 13.3 68 68 NNE 5 7 30.21 1023 10 16 0.00 0.00
4:53 am 04:53 Clear 66 18.9 55 12.8 68 68 Calm 30.22 1023 10 16 0.00 0.00
5:53 am 05:53 Sunny 65 18.3 54 12.2 68 68 NNE 3 6 30.23 1024 10 16 0.00 0.00
6:53 am 06:53 Sunny 69 20.6 55 12.8 61 61 VRB 3 6 30.24 1024 10 16 0.00 0.00
7:53 am 07:53 Sunny 72 22.2 55 12.8 55 55 VRB 6 9 30.24 1024 10 16 0.00 0.00
8:53 am 08:53 Sunny 77 25 55 12.8 47 47 NNE 6 9 30.24 1024 10 16 0.00 0.00
9:53 am 09:53 Sunny 80 26.7 53 11.7 39 39 NNE 13 20 30.24 1024 10 16 0.00 0.00
10:53 am 10:53 Sunny 82 27.8 52 11.1 35 35 NNE 14 22 30.24 1024 10 16 0.00 0.00
11:53 am 11:53 Sunny 84 28.9 52 11.1 33 33 NNE 13 20 30.22 1024 10 16 0.00 0.00
12:53 pm 12:53 Sunny 85 29.4 52 11.1 32 32 NE 15 24 30.21 1023 10 16 0.00 0.00
1:53 pm 13:53 Sunny 86 30 52 11.1 31 31 NNE 14 22 30.18 1022 10 16 0.00 0.00
2:53 pm 14:53 Sunny 87 30.6 53 11.7 31 31 NNE 10 17 30.16 1022 10 16 0.00 0.00
3:53 pm 15:53 Sunny 87 30.6 52 11.1 30 30 ENE 13 20 30.14 1021 10 16 0.00 0.00
4:53 pm 16:53 Sunny 87 30.6 54 12.2 32 32 NE 12 19 30.12 1020 10 16 0.00 0.00
5:53 pm 17:53 Sunny 86 30 53 11.7 32 32 NNE 10 17 30.11 1020 10 16 0.00 0.00
6:53 pm 18:53 Sunny 84 28.9 54 12.2 36 36 NNE 7 11 30.11 1020 10 16 0.00 0.00
7:53 pm 19:53 Sunny 79 26.1 58 14.4 49 49 N 5 7 30.11 1020 10 16 0.00 0.00
8:53 pm 20:53 Clear 76 24.4 58 14.4 54 54 NE 3 6 30.11 1020 10 16 0.00 0.00
9:53 pm 21:53 Clear 74 23.3 59 15 60 60 N 3 6 30.12 1020 10 16 0.00 0.00
10:53 pm 22:53 Clear 73 22.8 58 14.4 59 59 N 5 7 30.13 1020 10 16 0.00 0.00
11:53 pm 23:53 Clear 71 21.7 57 13.9 61 61 NE 6 9 30.12 1020 10 16 0.00 0.00

Powered by AerisWeather